Location: Unspecified
(0.0000°N, 0.0000°E)
Time: 01:23:00
(UTC+00:00)

Vanguard 2 Rocket - Pass Details

Date: 25 November 2019
Orbit: 554 x 3326 km, 32.9° (Epoch: 11 December)

Event Time Altitude Azimuth Distance (km) Brightness Sun altitude
Rises 19:29:09 0° 243° (WSW) 5,888 12.5 -23.8°
Reaches altitude 10° 19:33:52 10° 247° (WSW) 4,414 11.5 -24.8°
Maximum altitude 19:44:19 51° 320° (NW) 1,553 8.0 -27.2°
Enters shadow 19:46:24 40° 4° (N) 1,604 7.8 -27.7°
Drops below altitude 10° 19:50:18 10° 35° (NE) 2,569 - -28.6°
Sets 19:52:23 0° 41° (NE) 3,290 - -29.1°
